Theta_e
337 336 336 335 335 335 335 335 336 336 334 334 333 333 334 334 336 338 339 339 339 339 339 339 338 337 336 334 332 331 331 331 332 332 331 330 328 327 327 325 325 326
337 336 336 336 335 334 335 335 336 337 335 334 334 334 334 335 336 338 339 339 339 339 339 339 338 337 336 334 332 331 330 330 330 332 331 330 329 328 328 327 326 326
337 336 336 335 335 334 335 335 336 337 337 336 335 334 335 335 336 338 339 339 338 339 339 338 338 337 337 336 333 332 331 329 330 331 331 330 330 328 328 327 326 325
337 337 336 336 336 335 336 335 335 336 337 336 336 335 335 336 336 337 338 340 339 338 339 338 338 337 337 336 335 333 332 331 331 331 330 330 330 329 328 327 326 326
337 337 337 336 336 336 336 335 335 336 336 337 337 336 335 335 336 336 337 338 339 338 338 338 338 337 337 336 335 334 333 332 331 331 330 329 329 329 328 327 326 325
338 338 337 336 336 336 335 335 335 336 337 337 337 337 336 336 336 336 337 338 338 338 338 337 337 336 336 336 335 335 334 332 331 331 330 329 328 329 329 327 326 326
337 338 337 337 335 336 336 336 336 336 337 338 338 337 337 336 336 336 337 338 338 338 337 337 337 336 336 336 335 334 334 333 331 332 330 329 328 328 329 327 327 326
337 338 338 337 335 336 336 336 336 336 337 338 337 338 338 337 337 337 337 338 338 337 337 337 337 336 336 336 335 334 333 333 332 331 331 329 328 328 328 328 327 326
338 337 337 336 335 335 336 336 337 337 337 337 338 338 338 338 338 337 338 338 338 338 337 337 337 337 336 336 335 334 333 332 332 331 331 329 328 328 328 328 326 325
337 337 336 336 335 335 335 336 337 337 337 338 338 338 338 338 339 338 338 338 338 337 337 337 337 337 336 336 336 335 333 332 332 331 331 331 329 329 328 328 327 325
337 337 336 336 335 335 335 336 337 337 337 337 338 338 338 338 338 339 338 338 337 337 337 337 337 337 336 335 336 335 334 333 332 331 331 331 330 330 331 328 327 326
336 336 336 336 335 335 335 336 337 337 337 337 338 337 338 339 338 339 338 338 338 338 338 337 337 337 336 335 335 335 334 333 332 331 331 330 329 329 329 328 327 326
336 336 336 336 336 336 336 336 337 337 337 337 338 338 338 338 339 339 338 339 338 338 338 337 337 337 336 335 335 334 334 332 331 331 330 329 328 328 328 327 326 325
336 337 337 337 337 337 337 336 337 338 338 338 338 338 338 339 339 339 339 339 339 338 338 338 337 336 336 335 335 334 333 332 331 330 329 328 326 326 325 325 324 323
337 337 337 337 337 337 337 337 337 338 338 338 337 338 339 339 339 339 338 338 338 338 338 337 336 336 336 335 334 333 332 331 330 329 328 326 324 323 323 323 322 322
337 337 336 337 337 337 337 337 337 337 338 337 337 338 338 338 339 339 338 337 337 337 337 336 336 336 330 323 324 332 331 331 329 328 327 326 323 320 319 320 320 320
328 334 337 336 337 337 337 337 337 336 337 337 337 337 337 337 338 337 337 337 337 336 336 336 336 335 319 311 311 316 328 329 328 327 326 325 323 320 318 317 317 317
331 330 335 336 336 336 335 332 331 330 332 335 336 335 336 336 336 337 337 336 336 336 335 335 335 324 311 309 309 309 316 329 328 326 324 323 322 321 319 316 315 315
331 331 332 334 334 334 332 328 329 329 329 330 331 332 331 332 336 336 335 336 335 335 335 335 334 317 307 308 307 307 308 320 327 326 323 322 321 320 318 315 313 313
324 326 330 333 333 332 331 329 329 329 330 331 330 328 326 325 327 330 334 335 335 335 334 334 334 318 305 306 306 305 305 312 327 324 323 322 320 319 317 314 313 312
323 322 324 327 331 331 330 330 330 329 328 328 328 328 327 327 327 327 328 331 333 334 333 334 334 313 304 304 305 304 304 309 326 323 322 320 319 317 316 313 312 312
323 322 322 322 322 324 328 329 327 324 325 325 324 326 327 328 328 329 329 330 330 332 332 332 334 309 303 303 304 303 303 318 324 322 320 319 317 316 314 313 312 311
323 323 322 322 322 321 320 320 322 322 321 321 323 324 326 326 326 328 329 329 328 329 331 332 332 310 301 303 303 302 305 322 323 321 319 317 316 315 314 312 311 311
322 323 323 322 322 321 319 320 321 322 321 322 322 323 324 326 326 327 328 328 328 329 331 331 331 314 300 302 302 301 309 323 322 320 318 316 315 314 312 311 311 315
322 322 323 323 322 322 322 322 323 325 325 325 325 325 325 326 324 326 327 328 329 329 324 327 330 317 300 302 301 301 309 324 322 319 317 315 314 312 311 310 310 314
323 322 323 323 323 323 324 325 325 322 322 324 325 326 325 326 325 325 326 327 328 328 327 328 329 324 308 300 301 301 304 323 322 319 317 315 313 312 310 308 309 310
Wind_Speed
13 13 14 14 13 12 12 12 11 13 13 12 12 12 12 11 11 12 12 11 12 11 11 11 10 9 9 9 9 8 9 10 9 8 9 9 9 9 9 9 8 8
14 13 12 12 11 10 11 12 12 13 13 13 11 11 10 11 11 12 12 12 12 12 11 11 10 10 10 9 10 10 9 9 10 7 9 11 9 9 10 10 10 7
14 13 13 14 14 15 15 14 13 12 12 12 11 10 10 11 11 12 12 12 12 12 12 11 11 11 11 10 10 10 10 10 10 9 10 11 10 10 9 9 8 9
15 15 15 15 14 14 13 12 12 11 10 10 12 12 11 10 11 12 12 12 12 12 12 11 12 11 11 11 11 10 10 10 10 10 10 8 9 10 9 8 8 8
16 15 14 14 13 13 12 13 14 13 13 14 12 11 11 12 12 12 12 12 12 12 12 12 12 11 11 11 11 10 10 9 9 10 10 10 9 9 8 8 8 9
13 13 13 13 13 13 13 14 15 15 15 13 14 12 12 13 12 13 13 13 12 13 13 13 12 11 11 11 10 10 10 9 9 11 11 11 9 9 8 9 9 10
15 14 14 13 13 13 14 15 14 14 14 14 12 13 13 13 14 14 14 14 14 13 13 13 13 12 11 10 11 11 10 10 10 11 11 9 9 10 8 9 10 10
15 14 14 13 14 14 14 14 13 14 14 13 14 14 14 15 15 13 13 14 13 14 13 13 13 12 11 11 11 12 11 9 10 11 11 10 9 10 10 9 9 10
14 14 14 15 15 14 14 14 14 14 13 14 15 14 14 14 14 14 13 13 13 13 12 12 13 12 11 11 12 13 12 11 10 11 12 11 11 11 11 9 9 9
15 15 15 15 16 15 16 15 14 13 13 15 15 13 13 13 13 13 12 12 12 12 12 12 12 12 11 12 13 13 13 13 11 11 11 12 12 11 11 11 11 10
16 15 16 17 16 15 16 15 15 14 13 15 14 13 13 12 11 11 12 12 12 13 12 12 12 12 12 12 11 11 12 12 11 11 11 12 12 11 11 12 11 11
16 15 16 17 17 16 16 15 14 13 13 13 14 14 13 12 12 11 12 13 12 12 12 12 11 12 12 12 12 11 11 11 11 11 11 11 11 11 11 11 11 11
16 17 16 16 15 15 14 13 13 13 12 12 12 12 13 12 12 12 11 12 13 12 12 12 12 11 11 12 12 11 11 11 10 11 10 10 10 11 10 10 10 10
17 16 15 15 14 14 13 11 11 11 10 9 8 10 12 14 15 15 13 11 12 12 12 11 11 11 12 12 12 11 11 11 11 11 11 10 9 9 10 10 10 10
13 13 13 13 13 12 11 10 10 10 10 10 12 13 12 13 13 13 11 11 11 11 12 11 11 12 11 12 12 12 11 11 11 11 11 11 9 9 9 10 9 9
12 11 12 12 12 12 11 11 11 11 10 11 12 11 10 9 9 11 11 12 11 11 11 11 11 10 13 18 15 12 12 10 10 10 11 10 10 9 8 9 10 8
14 13 12 13 13 12 11 11 10 9 9 10 10 9 9 9 9 10 11 11 12 12 12 11 11 11 16 16 17 18 13 11 11 11 10 10 10 10 10 10 7 8
15 15 14 13 12 12 12 11 9 9 9 10 11 11 10 7 8 10 10 10 9 10 12 12 11 13 16 17 18 18 16 12 10 10 10 10 10 11 9 8 8 7
10 14 15 13 13 14 12 11 11 11 10 7 6 5 3 3 8 9 9 9 10 11 12 12 11 14 16 18 19 18 18 15 10 10 11 11 11 11 9 9 8 8
5 10 14 14 15 14 13 13 14 14 14 12 10 9 9 6 3 3 3 7 10 11 11 10 12 12 16 18 19 19 18 16 11 11 11 11 11 11 9 9 9 9
13 2 8 11 13 13 13 15 16 14 12 11 12 12 12 13 14 11 9 8 8 9 9 11 11 13 15 18 19 20 19 17 11 10 10 10 10 10 10 10 10 9
9 10 7 3 8 7 9 13 11 6 6 6 7 7 9 10 10 10 10 8 6 6 8 12 11 14 17 18 19 19 19 14 11 11 11 10 10 9 9 9 10 10
12 12 11 8 3 1 6 6 3 1 1 1 4 9 9 8 10 11 12 13 14 14 14 14 12 11 16 18 20 20 15 13 12 10 10 11 10 10 10 9 10 10
13 13 13 14 15 12 10 12 12 13 12 11 9 8 9 11 10 9 9 11 12 13 13 13 12 11 17 18 20 20 19 15 12 11 11 10 9 9 8 9 11 16
11 11 11 13 14 13 13 15 13 12 12 13 13 12 11 7 6 6 6 8 10 13 17 16 12 11 19 20 22 22 20 15 12 11 11 10 9 9 7 8 9 13
10 11 11 12 12 14 14 14 11 6 7 9 10 11 11 11 10 9 10 10 10 12 13 15 16 12 16 22 22 22 25 17 11 12 13 12 10 10 10 7 9 9
Wind_Direction
189 184 184 187 189 190 186 186 186 188 191 187 187 188 188 191 187 188 191 188 189 189 193 195 187 183 182 180 180 180 188 194 195 191 191 189 197 191 193 194 192 192
194 189 188 188 188 188 191 190 189 189 190 191 190 184 184 187 188 186 188 190 189 191 191 195 194 187 180 179 180 181 186 189 194 190 191 194 197 194 199 195 193 191
193 190 189 189 190 191 192 191 189 189 189 192 187 185 186 187 186 188 188 188 190 191 190 193 196 194 187 182 179 183 185 187 192 189 191 198 193 194 199 191 190 188
196 193 192 195 196 194 190 187 191 190 186 186 192 191 186 186 186 187 188 187 189 191 191 191 195 196 194 188 180 186 187 190 192 184 192 196 197 195 194 185 189 191
195 194 195 197 197 194 189 190 191 191 191 192 190 187 188 186 188 189 188 189 188 190 190 192 192 195 196 194 189 189 187 188 188 186 191 195 195 190 191 182 188 194
198 199 198 197 195 192 193 195 193 192 192 189 191 190 193 188 188 191 190 188 190 189 190 191 192 194 193 196 194 198 190 187 186 185 191 193 190 190 184 188 190 196
197 197 199 198 197 196 198 199 196 192 192 194 188 192 191 191 192 193 191 191 190 192 191 191 192 191 192 193 196 199 198 193 184 188 192 193 185 188 189 185 193 199
199 199 200 201 200 198 200 198 196 193 193 188 191 195 193 194 194 193 193 192 192 193 193 193 193 192 190 192 196 199 199 195 191 192 195 193 186 189 188 187 189 197
201 200 199 202 202 202 202 200 198 196 190 190 194 194 196 197 194 193 193 193 195 194 194 196 195 194 192 193 198 198 198 199 195 193 195 194 193 194 189 183 185 194
201 202 201 202 205 204 204 202 199 198 192 195 194 192 196 200 193 191 192 194 196 196 197 196 196 197 194 198 200 199 199 200 197 197 198 200 199 196 190 187 190 191
204 202 202 203 205 206 207 204 202 199 196 196 193 193 194 194 194 189 192 195 199 199 198 198 198 197 198 201 204 203 202 200 199 199 200 202 201 199 193 192 191 196
204 204 205 205 204 207 208 206 204 202 198 199 196 194 191 189 188 189 194 198 201 200 200 201 198 199 201 202 204 205 205 204 202 202 203 202 201 201 197 195 194 195
204 204 205 205 207 208 208 206 206 205 201 201 197 195 189 185 184 189 193 197 200 199 201 200 199 200 203 204 206 205 204 203 204 206 205 205 204 200 198 197 195 192
206 204 203 205 207 209 209 206 205 205 205 198 190 199 198 189 184 190 191 192 196 199 201 198 199 201 203 205 206 205 203 205 204 205 206 208 207 202 198 197 195 192
213 206 204 205 204 206 206 204 201 202 200 195 197 202 204 201 184 180 183 189 193 197 199 198 201 203 202 202 203 205 204 205 205 206 206 207 207 205 202 199 195 194
234 211 205 200 200 199 202 200 202 201 199 198 200 203 207 202 188 178 183 188 192 198 199 201 205 206 203 199 199 200 200 203 205 207 206 206 204 203 206 203 198 194
233 233 207 201 195 197 196 198 199 194 194 197 197 197 198 194 188 186 184 186 194 196 201 207 208 208 197 195 200 199 196 198 201 206 207 206 204 200 201 200 201 196
203 218 218 197 193 195 189 180 166 166 178 191 192 189 190 176 187 189 186 183 192 200 205 209 213 207 190 195 197 198 195 195 199 202 204 207 207 204 203 195 193 194
226 215 209 198 194 190 181 167 164 165 167 159 152 127 105 207 202 187 185 189 191 202 212 214 218 203 192 193 196 196 196 192 199 201 201 209 207 205 201 195 190 190
289 254 222 204 192 191 184 180 179 180 179 177 164 142 129 110 27 308 246 201 198 203 212 218 221 205 193 192 195 196 195 193 198 198 203 206 206 203 199 194 190 187
179 199 284 244 222 197 191 190 189 188 181 179 173 173 173 173 182 182 200 217 214 211 213 219 225 202 191 192 195 195 195 194 198 198 202 206 206 203 198 193 191 190
192 174 170 316 328 289 218 194 183 172 187 175 175 193 189 189 186 164 173 191 202 219 227 229 225 193 190 193 193 196 191 197 199 197 201 203 204 203 200 194 190 188
194 195 191 174 177 75 339 8 45 106 111 350 179 187 196 197 194 184 182 189 197 204 216 224 226 187 186 192 195 193 186 204 199 199 202 201 203 201 198 194 193 191
195 203 206 200 184 169 183 229 200 187 191 191 198 208 209 201 198 201 198 196 195 204 213 222 224 184 183 191 196 192 193 201 201 198 203 201 204 200 196 197 198 193
197 193 184 175 169 173 182 202 214 204 188 185 189 190 198 193 199 207 213 213 208 206 207 211 220 183 182 191 193 194 196 204 197 198 200 203 194 199 201 199 203 202
201 194 183 176 175 180 188 198 197 176 156 174 185 188 188 188 185 190 203 216 218 220 217 212 215 196 186 191 191 193 198 200 195 196 203 198 194 193 194 209 207 206